Location: Alsip
(41.6689°N, 87.7387°W)
Time: 15:20:48
(UTC+00:00)

Cosmos 389 Rocket - Pass Details

Date: 14 July 2020
Orbit: 442 x 477 km, 81.1° (Epoch: 12 August)

Event Time Altitude Azimuth Distance (km) Brightness Sun altitude
Rises 06:10:29 0° 347° (NNW) 2,470 7.3 -26.7°
Reaches altitude 10° 06:12:34 10° 344° (NNW) 1,587 6.0 -26.6°
Enters shadow 06:14:19 27° 337° (NNW) 896 4.4 -26.6°
